This is the latest recevied weather packets stored in our database for station/object JH7MHZ-13. If no packets are shown the sender has not sent any weather packets the latest 10 day(s).
| Time | Temp. | Humidity | Pressure | Rain* | Wind** | Luminosity | Snow |
|---|---|---|---|---|---|---|---|
| 1787907851 | 21.67° C | 81% | 993.4 hPa | 0 mm | - | - | - |
| 1787904251 | 23.33° C | 78% | 993 hPa | 0 mm | - | - | - |
| 1787900650 | 24.44° C | 74% | 992.6 hPa | 0 mm | - | - | - |
| 1787897050 | 26.67° C | 67% | 991.8 hPa | 0 mm | - | - | - |
| 1787893449 | 27.22° C | 63% | 991.4 hPa | 0 mm | - | - | - |
| 1787889849 | 27.78° C | 60% | 991.4 hPa | 0 mm | - | - | - |
| 1787886248 | 27.78° C | 63% | 991.2 hPa | 0 mm | - | - | - |
| 1787882647 | 27.78° C | 69% | 991.4 hPa | 0 mm | - | - | - |
| 1787879047 | 26.11° C | 77% | 991.6 hPa | 0 mm | - | - | - |
| 1787875446 | 25° C | 83% | 991.7 hPa | 0 mm | - | - | - |
| 1787871846 | 22.22° C | 96% | 991.1 hPa | 0 mm | - | - | - |
| 1787868283 | 21.11° C | 98% | 990.6 hPa | 0 mm | - | - | - |
| 1787868245 | 21.11° C | 98% | 990.6 hPa | 0 mm | - | - | - |
| 1787864644 | 18.89° C | 98% | 990.3 hPa | 0 mm | - | - | - |
| 1787861044 | 18.89° C | 98% | 989.9 hPa | 0 mm | - | - | - |
| 1787857443 | 19.44° C | 98% | 990 hPa | 0 mm | - | - | - |
| 1787853843 | 19.44° C | 98% | 989.4 hPa | 123.95 mm | - | - | - |
| 1787850242 | 18.89° C | 98% | 988.2 hPa | 0 mm | - | - | - |
| 1787846642 | 18.89° C | 98% | 988.7 hPa | 0 mm | - | - | - |
| 1787843041 | 19.44° C | 98% | 989.4 hPa | 1.52 mm | - | - | - |
| 1787839441 | 19.44° C | 98% | 989.7 hPa | 0 mm | - | - | - |
| 1787835840 | 20° C | 98% | 990.2 hPa | 0 mm | - | - | - |
| 1787832239 | 20° C | 98% | 990 hPa | 0 mm | - | - | - |
| 1787828639 | 20° C | 98% | 990.6 hPa | 7.11 mm | - | - | - |
| 1787825038 | 20.56° C | 98% | 989.4 hPa | 36.32 mm | - | - | - |
* Rain latest hour (hover to see other rain measurements)
** Current wind speed in m/s (hover to see current wind gust speed)